アトラス彗星

C/2020 Y2 ( ATLAS )

English version
Home page
Updated on September 11, 2022

---------------------------------------------------------------------

・ プロフィール

発見日 2020年12月28日
発見光度 18.3等
発見者 Asteroid Terrestrial-Impact Last Alert System (ATLAS) search program

・ 写真集

・ 軌道要素

Epoch 2022 Aug. 9.0 TT = JDT 2459800.5
T 2022 June 17.69425 TT                                 Rudenko
q   3.1324933            (2000.0)            P               Q
z  +0.0009414      Peri.  266.10466     -0.14804639     +0.88680876
 +/-0.0000006      Node    26.51501     +0.52180766     +0.44607260
e   0.9970512      Incl.  101.29779     -0.84011846     +0.12078685
From 704 observations 2020 Mar. 25-2022 Sept. 4, mean residual 0".4.

・ 星図

・ 光度変化

        m1 = 7.0 + 5 logΔ + 10.0 log r(t + 100)

---------------------------------------------------------------------

軌道要素はM.P.E.C. 2022-R139に掲載されたものです。
星図はステラナビゲータ Ver.10 (アストロアーツ) で作成したものです。
光度グラフはComet for Windowsで作成したものです。

---------------------------------------------------------------------

Copyright(C) Seiichi Yoshida (comet@aerith.net). All rights reserved.